Regional Weather Roundup
Issued by NWS Wakefield, VA

Home | Current Version | Previous Version | Graphics & Text | Print | Product List | Glossary On
Versions: 1 2 3 4 5 6 7 8 9 10 11 12 13 14 15 16 17 18 19 20 21 22 23 24 25 26 27 28 29 30 31 32 33 34 35 36 37 38 39 40 41 42 43 44 45 46 47 48 49 50
000
ASUS41 KAKQ 010215
RWRAKQ

REGIONAL WEATHER ROUNDUP
NATIONAL WEATHER SERVICE WAKEFIELD VA
1000 PM EDT FRI JUL 31 2015

Note: "fair" indicates few or no clouds below 12,000 feet with no
significant weather and/or obstructions to visibility. * = Denotes
station may not report precipitation (e.g., rain,snow,etc.),
thunder or fog.

VAZ042-051-052>054-056-010300-
NORTHERN VIRGINIA

CITY           SKY/WX    TMP DP  RH WIND       PRES   REMARKS
WASH NATIONAL  CLEAR     83  61  47 SW5       29.89R
DULLES         CLEAR     73  63  70 SW5       29.90R
FORT BELVOIR   CLEAR     70  67  90 CALM      29.89R
QUANTICO       NOT AVBL
FREDERICKSBRG* CLEAR     76  67  74 CALM      29.90R
STAFFORD*      CLEAR     68  67  94 CALM      29.95R
WARRENTON      CLEAR     68  67  98 CALM      29.90R
CULPEPER*      CLEAR     70  66  88 CALM      29.92R
MANASSAS*      NOT AVBL
LEESBURG*      CLEAR     73  70  88 W6        29.91R
WINCHESTER     CLEAR     75  59  57 CALM      29.92R
FRONT ROYAL*   FAIR      72  64  78 SW3       29.91R
LURAY*         FAIR      73  64  73 S3        29.94R
$$

VAZ048-049-060>072-079>083-010300-
CENTRAL AND SOUTH CENTRAL VIRGINIA

CITY           SKY/WX    TMP DP  RH WIND       PRES   REMARKS
RICHMOND       CLEAR     76  64  66 S3        29.93R
CHESTERFIELD*  FAIR      72  55  56 CALM      29.94R
PETERSBURG*    CLEAR     69  69 100 CALM      29.95R
HANOVER        CLEAR     71  66  84 CALM      29.94R
TAPPAHANNOCK*  CLEAR     72  67  87 CALM      29.92S
QUINTON*       FAIR      71  68  89 CALM      29.92R
CHARLOTTSVILLE CLEAR     74  67  78 CALM      29.93R
GORDONSVILLE*  FAIR      70  64  83 CALM      29.92R
ORANGE*        CLEAR     72  68  88 CALM      29.94R
LOUISA*        CLEAR     70  63  78 CALM      29.92R
BUMPASS*       FAIR      70  66  89 CALM      29.92R
FARMVILLE*     CLEAR     72  61  68 CALM      29.93R
CREWE*         FAIR     N/A N/A N/A CALM      29.94R
FORT PICKETT*  FAIR      72  63  74 CALM      29.95R
CHASE CITY*    FAIR      74  71  89 CALM      29.96R
CLARKSVILLE*   FAIR      72  68  88 CALM      29.95R
SOUTH HILL*    PTCLDY    71  68  90 CALM      30.01R
LAWRENCEVILLE* FAIR      70  66  88 CALM      29.95R
EMPORIA*       CLEAR     72  70  94 CALM      29.96R
$$

VAZ088>098-010300-
SOUTHEAST VIRGINIA

CITY           SKY/WX    TMP DP  RH WIND       PRES   REMARKS
NORFOLK        PTCLDY    79  68  69 CALM      29.92R
VIRGINIA BEACH PTCLDY    77  67  71 CALM      29.92R
NORFOLK NAVAL  MOCLDY    74  67  78 CALM      29.94R
WEST POINT*    CLEAR     73  67  81 CALM      29.93R
SALUDA*        FAIR      72  67  84 SE5       29.91R
NEWPORT NEWS   PTCLDY    73  68  84 N8        29.93R
LANGLEY AFB    CLEAR     76  68  76 E2        29.92R
FORT EUSTIS    PTCLDY    76  72  86 CALM      29.91R
WILLIAMSBURG*  CLEAR     77  73  88 CALM      29.94R
HR EXEC AP*    FAIR      72  66  83 S6        29.95R
FRANKLIN*      CLEAR     72  68  88 CALM      29.94R
WAKEFIELD      CLEAR     71  67  87 CALM      29.94R
$$

VAZ020-022-025-037-045-010300-
WEST CENTRAL AND SOUTHWEST VIRGINIA

CITY           SKY/WX    TMP DP  RH WIND       PRES   REMARKS
STAUNTON*      CLEAR     71  63  74 CALM      29.98R
WAYNESBORO*    FAIR      73  60  65 CALM      29.98R
HOT SPRINGS VA CLEAR     66  55  68 W8        30.11R
LYNCHBURG      CLEAR     70  62  76 CALM      29.98R
DANVILLE       MOCLDY    73  67  81 CALM      29.97R
SOUTH BOSTON*  FAIR      70  68  92 CALM      29.96R
MARTINSVILLE   CLEAR     68  63  84 CALM      30.02R
ROANOKE        CLEAR     71  57  61 NW7       30.01R
BLACKSBURG     CLEAR     65  59  80 CALM      30.08S
DUBLIN*          N/A     69  60  71 W3        30.07S
MARION*        CLEAR     65  58  77 CALM      30.12R
HILLSVILLE*    CLEAR     71  56  60 NW7       30.09R
RICHLANDS*     FAIR      68  59  72 CALM      30.11R
WISE*          CLEAR     70  55  60 CALM      30.12R
ABINGDON*      CLEAR     68  59  73 CALM      30.08R
$$

MDZ021>025-VAZ099-100-010300-
SOUTHERN MARYLAND AND THE DELMARVA PENINSULA

CITY           SKY/WX    TMP DP  RH WIND       PRES   REMARKS
PATUXENT RIVER CLEAR     74  65  73 SW7       29.89R
BAY BRIDGE APT   N/A     77  63  61 S3        29.88R
LEONARDTOWN    CLEAR     73  63  68 CALM      29.92R
DOVER          CLEAR     76  67  74 S6        29.86R
GEORGETOWN     CLEAR     72  64  76 CALM      29.89R
EASTON         CLEAR     77  68  74 CALM      29.93
CAMBRIDGE      CLEAR     73  68  83 CALM      29.89R
SALISBURY      CLEAR     74  66  76 CALM      29.89R
OCEAN CITY     CLEAR     77  62  59 SW6       29.89R
WALLOPS ISLAND CLEAR     75  69  81 W3        29.91R
ACCOMACK*      CLEAR     72  70  94 CALM      29.91R
$$

NCZ012>017-030>032-010300-
NORTH CENTRAL AND EASTERN NORTH CAROLINA

CITY           SKY/WX    TMP DP  RH WIND       PRES   REMARKS
ROANOKE RAPIDS FAIR      72  66  83 CALM      29.95R
RALEIGH        PTCLDY    77  65  66 CALM      29.96R
ELIZABETH CITY CLEAR     72  69  90 S5        29.94R
AHOSKIE*       PTCLDY    74  68  83 CALM      29.95R
EDENTON*         N/A     74  66  75 CALM      29.94R
CURRITUCK*     CLEAR     75  67  76 CALM      29.94R
KILL DEVIL HLS CLEAR     74  61  63 CALM      29.93R
MANTEO         CLEAR     73  67  79 CALM      29.95R
CAPE HATTERAS  MOCLDY    77  69  76 E3        29.94R
TARBORO*         N/A     76  72  86 CALM      29.95R
GOLDSBORO      MOCLDY    81  70  69 S1        29.91R
WASHINGTON     CLEAR     79  73  80 CALM      29.94R
GREENVILLE     PTCLDY    81  73  78 E5        29.95S
NEW BERN       MOCLDY    79  73  82 SW5       29.94R
WILMINGTON     CLOUDY    77  75  93 E3        29.93R
$$

VAZ048-010300-
ELSEWHERE

CITY           SKY/WX    TMP DP  RH WIND       PRES   REMARKS
HARRISBURG PA  PTCLDY    82  61  48 W8        29.85R
BALTIMORE      CLEAR     74  62  66 CALM      29.87R
ANNAPOLIS      CLEAR     77  67  71 CALM      29.88R
ANDREWS AFB    CLEAR     74  65  73 S6        29.89R
PHILADELPHIA   CLEAR     82  61  48 SW7       29.86R
HENDERSON NC   CLEAR     73  65  76 CALM      29.97R HAZE
GREENSBORO     PTCLDY    78  61  55 E5        29.98R
ROCKY MOUNT    PTCLDY    78  65  63 CALM      29.94R
$$

VAZ100-010300-
MARINE

STATION/POSITION TIME  TEMP    WIND        PRES    WAVE   SWELL
                       AIR SEA DIR/SP/G            HT/PER HT/PER
                 (UTC) (F)     (DEG/KT/KT) (MB)    (FT/S) (FT/S)
BRANDYWINE LGT   0100   81 74  240/  7/  7 1011.4R
CAPE MAY NJ      0100   77 79  210/  6/  6 1010.9R
LEWES DE         0100   80 79  200/  4/  5 1011.3R
15NM E FENWICK I 0150   80 80  210/ 12/ 14 1012.1R   2/ 6   2/ 6
OCEAN-CITY-INLET 0100   78 75  230/  8/  9 1011.1R
THOMAS POINT MD  0100   83     230/  4/  4 1011.7R
GOOSES REEF MD   0200   83 82  240/  6/  8 1013.2R
COVE POINT MD    0100   82     270/  5/  6 1012.3R
SOLOMONS ISLAND  0100      83                N/A
BISHOPS HEAD MD  0100   84 86  260/ 10/ 11 1010.9R
PINEY POINT MD   0100          240/  6/  9   N/A
POTOMAC MD       0200   82 84  250/  8/ 10 1011.4R
CAMBRIDGE MD     0100   81 84  170/  2/  3 1010.7R
LEWISETTA VA     0100   80 85  250/  6/  7 1011.8R
RAPPAHANNOCK LGT 0100          220/  6/  6 1013.0R
STINGRAY PT      0200   83 83  200/  8/ 10 1013.0R   0
YORK RVR RNG VA  0100   83     160/  6/  7 1012.2R
YORKTOWN VA      0100   82 85  120/  5/  5 1012.4R
JAMESTOWN VA     0200   80 86  230/  2/  6   N/A
DOMINION TERM VA 0100   83     100/  3/  4 1012.5R
KIPTOPEKE VA     0100      83  210/  2/  2   N/A
CHES BAY BRIDGE  0100   82 81   40/  2/  2 1012.2R
CAPE HENRY VA    0100   82     310/  2/  2   N/A
CHESAPEAKE LGHT  0100   80     240/  5/  5 1013.3R
WILLOUBY STN VA  0100   83      CALM  /  1 1013.6R
CAPE HENRY BUOY  0128      82                N/A     3/10   2/11
1ST LANDING BUOY 0200      80              1012.9R   1/ 4
CAPE CHARLES BUO 0126      81                N/A     2/ 8   2/ 8
OFFSHORE WE BUOY 0111      82                N/A     3/ 9   3/ 9
64NM E OF VA BCH 0150   81 82  300/  6/  8 1012.8R   3/ 8   3/ 8
DUCK PIER NC     0100   80 80  100/  3/  3 1012.2R
44100 DUCK FRF   0124      81                N/A     3/11   2/11
44056 DUCK FRF   0111      80                N/A     3/ 5   2/11
OREGON INLET NC  0100   80 86   50/  3/  4 1013.0R
HATTERAS NC      0100   80 84   90/  4/  6 1013.2R
DIAMOND SHLS NC  0150   81 85   10/  4/  6 1013.9R   4/ 9   3/ 9



USA.gov is the U.S. government's official web portal to all federal, state and local government web resources and services.